Regional Weather Roundup
Issued by NWS Lake Charles, LA

Home | Current Version | Previous Version | Text Only | Print | Product List | Glossary On
Versions: 1 2 3 4 5 6 7 8 9 10 11 12 13 14 15 16 17 18 19 20 21 22 23 24 25 26 27
000
ASUS44 KLCH 241110
RWRLCH
RWRLCH
REGIONAL WEATHER ROUNDUP
NATIONAL WEATHER SERVICE LAKE CHARLES LA
600 AM CDT FRI OCT 24 2014

Note: "fair" indicates few or no clouds below 12,000 feet with no
significant weather and/or obstructions to visibility.


ACROSS SOUTHEAST TEXAS

CITY           SKY/WX    TMP DP  RH WIND       PRES   REMARKS
BEAUMONT       CLEAR     52  50  93 CALM      30.12R
BEAUMONT CITY    N/A     49  49 100 CALM      30.14R
ORANGE         SUNNY    N/A N/A N/A CALM      30.14S HAZE
JASPER         CLEAR     47  46  98 CALM      30.16S
$$

ACROSS CENTRAL LOUISIANA

CITY           SKY/WX    TMP DP  RH WIND       PRES   REMARKS
LEESVILLE      CLEAR     51  49  92 NE5       30.13R
FULLERTON        N/A     50  46  86 CALM      30.11S FOG
ALEXANDRIA INT CLEAR     44  43  96 CALM      30.13R
ESLER FIELD    CLEAR     43  43 100 CALM      30.14R
DERIDDER         N/A     49  47  95 CALM      30.15R
OAKDALE          N/A     44  43  96 CALM      30.13R
OPELOUSAS        N/A     47  46  98 N3        30.12R
$$

ACROSS SOUTHWEST AND SOUTH CENTRAL LOUISIANA

CITY           SKY/WX    TMP DP  RH WIND       PRES   REMARKS
SULPHUR        SUNNY     50  49  98 N3        30.13S
LAKE CHARLES   CLEAR     52  49  89 N3        30.12S
CHENNAULT INT  CLEAR     50  48  93 CALM      30.12R
CAMERON PHI    SUNNY     54  52  94 NE6       30.14S
DEQUINCY         N/A     47  46  99 CALM      30.13R
JENNINGS         N/A     49  48  97 CALM      30.12S
LAFAYETTE      CLEAR     50  49  96 N6        30.11R
NEW IBERIA     CLEAR     52  49  89 N6        30.11R
ABBEVILLE        N/A     47  47 100 N5        30.11R
PATTERSON      CLEAR     52  50  93 E3        30.11S
SALT POINT       N/A     56  52  86 VRB3      30.08S
$$

SELECTED SITES ACROSS THE REGION

CITY           SKY/WX    TMP DP  RH WIND       PRES   REMARKS
HOUSTON BUSH   CLEAR     55  53  93 N3        30.13R
HOUSTON HOBBY  CLEAR     59  55  87 NE3       30.12R
GALVESTON      CLEAR     63  59  87 NE12      30.11S
COLLEGE STAT   CLEAR     60  54  80 CALM      30.13R
CONROE         CLEAR     51  50  96 CALM      30.14R
HUNTSVILLE     CLEAR     54  51  90 CALM      30.14R
LUFKIN         CLEAR     54  49  83 CALM      30.14S
SHREVEPORT     CLEAR     50  48  93 CALM      30.15R
MONROE         FOG       46  44  93 CALM      30.16S VSB 3/4
NATCHEZ MS     CLOUDY    46  45  93 CALM      30.13S VSB 1/4
BATON ROUGE    CLEAR     48  47  96 CALM      30.11R
N.O. INTL ARPT PTCLDY    60  50  69 NE7       30.09R
SLIDELL        PTCLDY    50  48  93 CALM      30.09R
$$

MARINE REPORTS

STATION/POSITION TIME  TEMP    WIND        PRES    VSBY  WAVE
                       AIR SEA DIR/SP/G                  HT/PER
                 (UTC) (F)     (DEG/KT/KT) (MB)    (MI)  (FT/S)
BUOY 30 S HIGH I 1100   68 77   40/ 10/ 12 1019.0R         2/ 7
SEA RIM ST PARK  1100   57      20/  4/  5 1020.4R
PORT ARTHUR      1100      74   30/  2/  6 1019.9F
SABINE PASS N    1100   56 72   30/  8/ 11 1019.9F
TEXAS POINT      1100   55 72   10/  9/ 11 1019.9F
CALCASIEU PASS   1100   57 71   40/  7/  8   N/A
LK CHARLES BEACH 1100   53 75              1020.0R
MARSH ISLAND     NOT AVBL
FRESH WATER LOCK 1100   56 73   20/  4/  5 1018.8R
AMERADA PASS     1100   56 69   40/  2/  4 1018.5R
$$



USA.gov is the U.S. government's official web portal to all federal, state and local government web resources and services.